"Time","Temp","Dewpoint","Humidity","Pressure","Direction","Speed","Gust","Precip","PrecipRate"
"00:04:57","44.7","43.5","95.5","30.11","289","0.1","1.2","0.00","0.00"
"00:09:56","45","43.9","96","30.11","289","0","0","0.00","0.00"
"00:14:59","45.1","44","96","30.11","289","0","1.2","0.00","0.00"
"00:19:58","45.2","44.1","96","30.11","289","0","1.2","0.00","0.00"
"00:24:57","45.2","44.1","96","30.11","289","0","1.2","0.00","0.00"
"00:29:56","45.3","44.2","96","30.11","289","0","0","0.00","0.00"
"00:34:59","45.3","44.2","96","30.11","289","0.1","1.2","0.00","0.00"
"00:39:59","45.2","44.1","96","30.11","289","0","1.2","0.00","0.00"
"00:44:57","45.3","44.2","96","30.11","289","0.2","2.4","0.00","0.00"
"00:49:56","45.3","44.2","96","30.11","289","0","0","0.00","0.00"
"00:54:58","45.3","44.2","96","30.11","289","0","1.2","0.00","0.00"
"00:59:57","45.4","44.3","96","30.12","289","0","0","0.00","0.00"
"01:04:56","45.4","44.2","95.6","30.12","289","0","0","0.00","0.00"
"01:09:58","45.3","44.1","95.5","30.12","289","0","0","0.00","0.00"
"01:14:58","45.2","43.9","95","30.12","289","0","0","0.00","0.00"
"01:19:57","45","43.7","95","30.11","289","0","0","0.00","0.00"
"01:24:59","44.8","43.5","95","30.11","289","0","0","0.00","0.00"
"01:29:58","44.6","43.3","95","30.11","289","0","0","0.00","0.00"
"01:34:56","44.4","43.1","95","30.11","289","0","0","0.00","0.00"
"01:39:59","44.1","42.8","95","30.11","289","0","0","0.00","0.00"
"01:44:58","43.9","42.6","95","30.11","289","0","0","0.00","0.00"
"01:49:56","43.6","42.3","95","30.11","289","0","0","0.00","0.00"
"01:54:58","43.4","42.1","95","30.11","289","0","0","0.00","0.00"
"01:59:56","43.3","42","95","30.11","289","0","0","0.00","0.00"
"02:04:59","43.1","41.8","95","30.11","289","0","0","0.00","0.00"
"02:09:58","43","41.7","95.1","30.11","289","0","0","0.00","0.00"
"02:14:56","42.9","41.6","95.1","30.11","289","0","0","0.00","0.00"
"02:19:58","42.8","41.6","95.5","30.11","289","0","0","0.00","0.00"
"02:24:56","42.7","41.6","96","30.11","289","0","0","0.00","0.00"
"02:29:59","42.7","41.6","96","30.11","289","0","0","0.00","0.00"
"02:34:57","42.9","41.8","96","30.11","289","0","0","0.00","0.00"
"02:39:56","42.9","41.8","96","30.11","289","0","0","0.00","0.00"
"02:44:59","42.8","41.7","96","30.11","289","0","0","0.00","0.00"
"02:49:57","42.7","41.6","96","30.11","289","0","0","0.00","0.00"
"02:54:59","42.6","41.5","96","30.11","289","0","0","0.00","0.00"
"02:59:57","42.5","41.4","96","30.11","289","0","0","0.00","0.00"
"03:04:58","42.4","41.3","96","30.11","289","0","0","0.00","0.00"
"03:09:56","42.4","41.3","96","30.11","289","0","0","0.00","0.00"
"03:14:59","42.3","41.2","96","30.11","289","0","0","0.00","0.00"
"03:19:59","42.3","41.2","96","30.11","289","0","0","0.00","0.00"
"03:24:57","42.2","41.1","96","30.11","289","0","0","0.00","0.00"
"03:29:56","42","40.9","96","30.12","289","0","0","0.00","0.00"
"03:34:58","42","40.9","96","30.12","289","0","0","0.00","0.00"
"03:39:56","41.9","40.8","96","30.12","289","0","0","0.00","0.00"
"03:44:56","41.8","40.7","96","30.12","289","0","0","0.00","0.00"
"03:49:57","41.9","40.9","96.5","30.12","289","0","0","0.00","0.00"
"03:54:56","42","40.9","96.1","30.12","289","0","0","0.00","0.00"
"03:59:58","42.2","41.4","97","30.12","289","0","0","0.00","0.00"
"04:04:57","42.2","41.3","96.7","30.11","289","0","0","0.00","0.00"
"04:09:59","42.1","41","96","30.11","289","0","0","0.00","0.00"
"04:14:57","41.9","40.8","96","30.12","289","0","0","0.00","0.00"
"04:19:59","41.7","40.6","96","30.12","289","0","0","0.00","0.00"
"04:24:57","41.6","40.5","96","30.12","289","0","0","0.00","0.00"
"04:29:58","41.6","40.8","96.9","30.12","289","0","0","0.00","0.00"
"04:34:56","41.7","40.9","97","30.12","289","0","0","0.00","0.00"
"04:39:58","41.8","41","97","30.12","289","0","0","0.00","0.00"
"04:44:56","41.8","41","97","30.12","289","0","0","0.00","0.00"
"04:49:58","41.8","41","97","30.12","289","0","0","0.00","0.00"
"04:54:59","41.7","40.9","96.9","30.12","289","0","0","0.00","0.00"
"04:59:57","41.5","40.4","96","30.13","289","0","0","0.00","0.00"
"05:04:56","41.4","40.5","96.7","30.13","289","0","0","0.00","0.00"
"05:09:58","41.4","40.6","97","30.13","289","0","0","0.00","0.00"
"05:14:57","41.4","40.6","97","30.14","289","0","0","0.00","0.00"
"05:19:58","41.3","40.5","97","30.14","289","0","0","0.00","0.00"
"05:24:56","41.3","40.5","97","30.14","289","0","0","0.00","0.00"
"05:29:57","41.2","40.4","97","30.14","289","0","0","0.00","0.00"
"05:34:59","41","40.2","96.7","30.14","289","0","0","0.00","0.00"
"05:39:57","41","40.1","96.9","30.14","289","0","0","0.00","0.00"
"05:44:59","41","40.2","97","30.15","289","0","0","0.01","0.01"
"05:49:57","41","40.2","97","30.15","289","0","0","0.01","0.01"
"05:54:59","40.8","39.9","96.5","30.15","289","0","0","0.01","0.01"
"05:59:57","40.6","39.5","96.2","30.15","289","0","0","0.01","0.01"
"06:04:59","40.4","39.4","96.3","30.15","289","0","0","0.01","0.01"
"06:09:58","40.2","39.3","96.3","30.15","289","0","0","0.01","0.01"
"06:14:57","40.2","39.4","97","30.16","289","0","0","0.01","0.01"
"06:19:59","40.2","39.4","97","30.16","289","0","0","0.01","0.01"
"06:24:56","40.3","39.5","97","30.16","289","0","0","0.01","0.01"
"06:29:57","40.4","39.6","97","30.17","289","0","0","0.01","0.01"
"06:34:59","40.3","39.5","97","30.17","289","0","0","0.01","0.01"
"06:39:57","40.3","39.5","97","30.17","289","0","0","0.01","0.01"
"06:44:58","40.3","39.5","97","30.18","289","0","0","0.01","0.01"
"06:49:59","40.5","39.7","97","30.18","289","0","0","0.01","0.00"
"06:54:56","40.7","39.9","97","30.18","289","0","0","0.01","0.00"
"06:59:57","40.8","40","97","30.19","289","0","0","0.01","0.00"
"07:04:56","41.3","40.5","97.1","30.19","289","0","0","0.01","0.00"
"07:09:58","42","41.5","98","30.19","11","0","0","0.01","0.00"
"07:14:57","42.8","42.3","98","30.19","9","0","1.2","0.01","0.00"
"07:19:59","43.8","43.3","98","30.19","280","0.3","2.4","0.01","0.00"
"07:24:57","44.7","44.2","98","30.19","278","0","1.2","0.01","0.00"
"07:29:59","45.5","45","98","30.20","278","0.3","1.2","0.01","0.00"
"07:34:56","46.5","45.8","97.3","30.20","299","0.8","3.6","0.01","0.00"
"07:39:58","47.3","45.8","94.5","30.20","307","0.4","2.3","0.01","0.00"
"07:44:59","47.9","46.2","93.4","30.21","294","0.7","3.6","0.01","0.00"
"07:49:57","48.4","46","91.1","30.21","344","0.9","6","0.01","0.00"
"07:54:59","48.9","46.1","90.2","30.21","314","0.7","3.6","0.01","0.00"
"07:59:57","49.3","46.5","90.3","30.21","322","0.7","3.6","0.01","0.00"
"08:04:59","49.6","46.6","89.3","30.21","326","1.3","3.6","0.01","0.00"
"08:09:57","50","46.8","88.5","30.21","316","1.4","7.2","0.01","0.00"
"08:14:57","50.4","47.2","88.4","30.22","273","0.7","2.4","0.01","0.00"
"08:19:56","50.9","47.3","87.2","30.22","264","0.6","3.6","0.01","0.00"
"08:24:58","51.4","47.4","86.1","30.22","335","2.1","6","0.01","0.00"
"08:29:56","51.8","47.3","84.8","30.22","330","2.5","7.2","0.01","0.00"
"08:34:58","52.1","47.7","84.9","30.22","344","2","5.8","0.01","0.00"
"08:39:56","52.5","47.8","83.9","30.22","326","1.8","6","0.01","0.00"
"08:44:58","52.9","47.6","82.1","30.23","339","4.2","10.8","0.01","0.00"
"08:49:56","53.2","47.5","81.3","30.23","354","2.9","7.2","0.01","0.00"
"08:54:58","53.5","48","81.6","30.23","342","2.6","7.2","0.01","0.00"
"08:59:56","53.9","47.8","79.7","30.23","341","2.7","7.2","0.01","0.00"
"09:04:59","54.4","48.6","80.6","30.23","354","2.4","6.9","0.01","0.00"
"09:09:57","55.1","48.8","79.2","30.23","342","4.2","12","0.01","0.00"
"09:14:56","55.5","48.5","77.3","30.23","350","3.3","8.4","0.01","0.00"
"09:19:59","55.8","48.7","77","30.23","343","3.7","8.1","0.01","0.00"
"09:24:59","56.1","48.7","76.2","30.23","336","3.6","8.4","0.01","0.00"
"09:29:59","56.4","48.8","75.7","30.24","307","3.2","7.2","0.01","0.00"
"09:34:57","56.7","49.5","76.7","30.24","307","1.5","6","0.01","0.00"
"09:39:56","57","49.2","75.1","30.24","330","2.1","7.2","0.01","0.00"
"09:44:58","57.2","49.3","74.7","30.24","5","2.3","7.2","0.01","0.00"
"09:49:56","57.5","49.4","74.5","30.24","329","3.3","10.8","0.01","0.00"
"09:54:58","57.7","49.6","74.5","30.24","337","2.8","9.6","0.01","0.00"
"09:59:56","57.9","49.6","73.8","30.24","353","5.1","12","0.01","0.00"
"10:04:59","58","49.2","72.6","30.24","352","3.4","9.2","0.01","0.00"
"10:09:56","58.2","49.8","73.6","30.24","338","2.6","10.8","0.01","0.00"
"10:14:59","58.6","49.5","71.8","30.24","335","3.2","7.2","0.01","0.00"
"10:19:56","59.2","51","74.2","30.24","263","2.2","6","0.01","0.00"
"10:24:57","59.8","50.4","71.3","30.24","317","2.4","7.2","0.01","0.00"
"10:29:59","59.2","49.7","70.8","30.24","313","2.4","8.4","0.01","0.00"
"10:34:56","60.2","50.9","71.3","30.24","332","2.3","13.2","0.01","0.00"
"10:39:59","60.7","50.3","68.5","30.24","325","2.6","11.5","0.01","0.00"
"10:44:57","60.7","50.9","69.9","30.24","330","1.4","4.8","0.01","0.00"
"10:49:59","60.7","50.5","69.4","30.24","282","2.7","7.2","0.01","0.00"
"10:54:57","59.8","49.7","69.1","30.24","199","2.1","4.8","0.01","0.00"
"10:59:58","60.2","50.1","69.2","30.24","336","3.3","7.2","0.01","0.00"
"11:04:57","60.8","50.9","69.8","30.23","343","1.5","4.8","0.01","0.00"
"11:09:59","61.5","50.1","66.2","30.23","322","3.3","7.2","0.01","0.00"
"11:14:58","62","50.6","66.2","30.23","333","3.6","13.2","0.01","0.00"
"11:19:56","61.6","49.5","64.5","30.23","313","3.4","12.7","0.01","0.00"
"11:24:58","61.9","49.4","63.7","30.23","298","2.8","10.8","0.01","0.00"
"11:29:59","62.3","49.8","63.6","30.23","302","3.4","10.4","0.01","0.00"
"11:34:57","62.2","47.9","59.5","30.23","318","4.6","10.8","0.01","0.00"
"11:39:59","62.8","49.4","61.5","30.23","316","2.4","12","0.01","0.00"
"11:44:58","62.9","49.1","60.8","30.23","251","3.8","11.5","0.01","0.00"
"11:49:56","62.9","48.9","60.3","30.23","326","4","9.6","0.01","0.00"
"11:54:58","63","49.3","61.1","30.23","288","4.5","10.8","0.01","0.00"
"11:59:56","63.3","48.4","58.4","30.23","286","4.5","10.8","0.01","0.00"
"12:04:59","63.6","50.3","61.9","30.23","286","4.1","13.2","0.01","0.00"
"12:09:57","63.9","49.4","59.3","30.23","321","3","12.7","0.01","0.00"
"12:14:56","64","48.8","57.9","30.23","274","3.9","12","0.01","0.00"
"12:19:58","63.2","48.1","57.9","30.23","280","4.2","13.2","0.01","0.00"
"12:24:56","63.6","48.3","57.5","30.23","328","4.1","9.6","0.01","0.00"
"12:29:58","64.4","48.6","56.5","30.23","347","3.5","10.8","0.01","0.00"
"12:34:57","64.6","48.8","56.4","30.23","355","2","6","0.01","0.00"
"12:39:56","64.3","48.2","55.8","30.23","338","4.1","8.4","0.01","0.00"
"12:44:58","64.6","48.4","55.8","30.23","303","3.5","8.1","0.01","0.00"
"12:49:57","64.6","47.7","54.2","30.23","261","3.2","7.2","0.01","0.00"
"12:54:59","65","48.8","55.9","30.23","322","3.6","8.4","0.01","0.00"
"12:59:58","64.8","48.9","56.4","30.23","349","2.5","8.4","0.01","0.00"
"13:04:57","65.1","48.1","54.2","30.23","312","4.1","8.4","0.01","0.00"
"13:09:59","65.6","48.7","54.5","30.23","292","3.8","10.8","0.01","0.00"
"13:14:59","65.3","48.9","55.3","30.23","212","0.6","3.6","0.01","0.00"
"13:19:57","64.1","46.8","53.3","30.23","272","2.4","7.2","0.01","0.00"
"13:24:56","63.2","47","55.5","30.23","283","2.9","7.2","0.01","0.00"
"13:29:56","63.9","46.4","52.8","30.23","278","3.7","9.6","0.01","0.00"
"13:34:59","64.4","48.2","55.8","30.22","314","2.1","6","0.01","0.00"
"13:39:59","66.1","49.8","55.7","30.22","219","1.3","4.8","0.01","0.00"
"13:44:58","65.7","46.7","50.4","30.22","346","4.6","16.8","0.01","0.00"
"13:49:57","64.2","46","51.6","30.22","349","4","8.4","0.01","0.00"
"13:54:55","65.1","49","56","30.22","35","1.7","5.8","0.01","0.00"
"13:59:58","65.9","48.3","52.9","30.22","337","5.1","15","0.01","0.00"
"14:04:57","66.9","47.3","49.5","30.21","348","4.1","12.7","0.01","0.00"
"14:09:56","66.9","48.1","50.9","30.21","343","1.9","6.9","0.01","0.00"
"14:14:59","65.9","47.4","51.4","30.21","300","2","7.2","0.01","0.00"
"14:19:58","64.9","46.9","52","30.21","335","2.5","6","0.01","0.00"
"14:24:56","65.3","47.6","52.9","30.21","55","1.4","4.8","0.01","0.00"
"14:29:59","66.5","46.7","48.9","30.21","339","3.9","13.2","0.01","0.00"
"14:34:58","67.3","48.6","51.1","30.21","337","4","12","0.01","0.00"
"14:39:57","68.1","48.2","49.2","30.21","326","2.4","10.4","0.01","0.00"
"14:44:56","68","48.9","50.3","30.21","300","3.8","10.8","0.01","0.00"
"14:49:59","67.9","48.5","49.8","30.21","318","4.5","12","0.01","0.00"
"14:54:57","67.2","46.4","47.3","30.21","347","2.8","8.1","0.01","0.00"
"14:59:56","66.1","44.1","44.9","30.21","351","0.7","3.5","0.01","0.00"
"15:04:55","65.9","46.5","49.6","30.21","323","3.1","12","0.01","0.00"
"15:09:58","67","47.2","49.1","30.21","358","4.4","12","0.01","0.00"
"15:14:57","67.7","45.7","45.5","30.21","329","3.4","7.2","0.01","0.00"
"15:19:56","67.7","45.9","45.7","30.20","229","1.2","4.6","0.01","0.00"
"15:24:59","68.2","46.3","45.4","30.20","293","1.8","4.8","0.01","0.00"
"15:29:57","67.3","45","44.6","30.20","319","4.1","15","0.01","0.00"
"15:34:59","67.4","46.1","46.4","30.20","31","1.8","12","0.01","0.00"
"15:39:57","68.2","45.5","44.1","30.20","324","3.1","11.5","0.01","0.00"
"15:44:56","68.5","45.2","43.3","30.20","301","2.3","6","0.01","0.00"
"15:49:59","68.4","46","44.7","30.19","334","1.5","7.2","0.01","0.00"
"15:54:58","68","45.4","44.4","30.19","243","1.3","3.6","0.01","0.00"
"15:59:57","68.5","48.2","48.3","30.19","125","0.6","3.6","0.01","0.00"
"16:04:57","69.1","46.3","44.2","30.18","356","3.3","10.8","0.01","0.00"
"16:09:59","68.9","44.4","41.3","30.18","341","3.6","10.8","0.01","0.00"
"16:14:59","69","45.9","43.5","30.18","251","3.3","6","0.01","0.00"
"16:19:58","69.4","45.9","43.1","30.18","266","3.5","8.4","0.01","0.00"
"16:24:57","69.5","45.7","42.6","30.18","271","3","8.4","0.01","0.00"
"16:29:56","69.4","44.3","40.4","30.18","310","3.2","8.1","0.01","0.00"
"16:34:59","69.4","44.6","41","30.18","291","3.9","8.4","0.01","0.00"
"16:39:59","69.3","45.2","42","30.18","271","4","10.8","0.01","0.00"
"16:44:58","69.8","45.6","42","30.18","341","4.7","13.2","0.01","0.00"
"16:49:57","69.9","44.2","39.6","30.18","276","2.2","6","0.01","0.00"
"16:54:56","69.4","44","40","30.18","334","4.2","12","0.01","0.00"
"16:59:59","68.5","44.3","41.6","30.18","324","1.7","4.8","0.01","0.00"
"17:04:58","67.7","44.6","43.3","30.18","335","0.8","3.5","0.01","0.00"
"17:09:57","66.9","44.1","43.6","30.18","336","2.1","6","0.01","0.00"
"17:14:56","66.5","43.8","43.8","30.18","325","2.5","6","0.01","0.00"
"17:19:59","66.4","44","44.3","30.18","318","1.9","3.6","0.01","0.00"
"17:24:58","67","44.7","44.6","30.18","322","1.5","3.6","0.01","0.00"
"17:29:57","68.1","46.4","45.7","30.18","315","1.9","4.8","0.01","0.00"
"17:34:56","68.9","45.8","43.5","30.18","348","1.3","4.6","0.01","0.00"
"17:39:56","69.1","45.7","43","30.18","324","1.6","4.8","0.01","0.00"
"17:44:59","68.5","44.9","42.7","30.18","320","1.6","6","0.01","0.00"
"17:49:58","67.5","44.6","43.7","30.18","338","2.3","7.2","0.01","0.00"
"17:54:57","66.8","45","45.3","30.18","347","1.6","6","0.01","0.00"
"17:59:57","67.2","46.2","46.9","30.19","342","1.7","6","0.01","0.00"
"18:04:56","67.9","46.5","46.3","30.19","305","0.7","3.6","0.01","0.00"
"18:09:58","68.1","46.1","45.3","30.19","334","1.3","4.8","0.01","0.00"
"18:14:58","67.7","45.7","45.3","30.19","44","0.7","2.4","0.01","0.00"
"18:19:57","67.1","45.5","45.9","30.19","344","2.2","7.2","0.01","0.00"
"18:24:59","66.7","45.2","46","30.19","339","2.9","7.2","0.01","0.00"
"18:29:58","66.5","46","47.7","30.19","345","0.3","3.5","0.01","0.00"
"18:34:57","66.8","45.6","46.5","30.19","343","0.4","3.6","0.01","0.00"
"18:39:56","66.9","45.4","46","30.19","336","1.6","4.8","0.01","0.00"
"18:44:56","66.7","45.5","46.4","30.19","340","1.3","4.6","0.01","0.00"
"18:49:58","66.3","45.4","46.8","30.19","341","0.1","2.4","0.01","0.00"
"18:54:57","65.8","44.9","46.9","30.19","331","0.4","3.6","0.01","0.00"
"18:59:59","65.4","44.7","47.2","30.19","331","0.1","2.3","0.01","0.00"
"19:04:59","65","45.3","48.9","30.19","331","0.2","2.4","0.01","0.00"
"19:09:57","64.7","45.3","49.5","30.19","331","0.1","1.2","0.01","0.00"
"19:14:57","64.4","45.4","50","30.19","331","0.4","2.4","0.01","0.00"
"19:19:56","64.2","45.4","50.5","30.19","331","0","1.2","0.01","0.00"
"19:24:59","64","45.1","50.2","30.19","331","0","1.2","0.01","0.00"
"19:29:57","63.8","45.8","51.9","30.19","331","0","0","0.01","0.00"
"19:34:56","63.6","46.1","52.8","30.19","331","0","0","0.01","0.00"
"19:39:56","63.4","46.1","53.2","30.19","331","0","1.2","0.01","0.00"
"19:44:56","63.2","45.5","52.5","30.20","331","0.1","1.2","0.01","0.00"
"19:49:59","63","45.5","52.7","30.20","331","0","1.2","0.01","0.00"
"19:54:58","62.9","45","52.1","30.20","331","0","0","0.01","0.00"
"19:59:57","62.7","45.6","53.6","30.20","331","0","0","0.01","0.00"
"20:04:57","62.3","46.4","55.8","30.20","331","0","0","0.01","0.00"
"20:09:59","61.8","45.7","55.5","30.20","331","0","0","0.01","0.00"
"20:14:56","61.5","45.9","56.6","30.20","331","0.1","1.2","0.01","0.00"
"20:19:59","61.1","46.1","57.8","30.20","331","0.3","1.2","0.01","0.00"
"20:24:58","60.8","46.6","59.5","30.20","331","0","0","0.01","0.00"
"20:29:59","60.4","47","61.3","30.20","331","0","0","0.01","0.00"
"20:34:56","60","47.5","63.2","30.20","331","0","0","0.01","0.00"
"20:39:56","59.6","47","63.2","30.20","331","0","0","0.01","0.00"
"20:44:56","59.1","46.8","63.7","30.21","331","0","0","0.01","0.00"
"20:49:56","58.6","46.9","65","30.21","331","0","0","0.01","0.00"
"20:54:59","58","47.5","67.9","30.21","331","0","0","0.01","0.00"
"20:59:58","57.5","46.7","67.3","30.21","331","0","0","0.01","0.00"
"21:04:58","56.9","46.4","68","30.21","331","0","0","0.01","0.00"
"21:09:56","56.4","46.4","69","30.21","331","0","0","0.01","0.00"
"21:14:56","56.1","46.3","69.7","30.22","331","0","0","0.01","0.00"
"21:19:56","55.8","46.2","69.9","30.22","331","0","0","0.01","0.00"
"21:24:59","55.7","46","69.6","30.22","331","0","1.2","0.01","0.00"
"21:29:58","55.6","45.6","69","30.23","331","0.2","2.4","0.01","0.00"
"21:34:57","55.6","45.6","69","30.23","331","0","1.2","0.01","0.00"
"21:39:59","55.4","45.9","70.3","30.23","331","0","0","0.01","0.00"
"21:44:58","55","45.9","71.2","30.24","331","0","1.2","0.01","0.00"
"21:49:57","54.6","45.8","72.2","30.24","331","0","0","0.01","0.00"
"21:54:58","54.3","45.8","73","30.24","331","0","0","0.01","0.00"
"21:59:57","53.9","45.8","73.9","30.24","331","0","0","0.01","0.00"
"22:04:57","53.5","45.8","75.2","30.24","331","0","0","0.01","0.00"
"22:09:59","53","45.7","76.4","30.24","331","0","0","0.01","0.00"
"22:14:59","52.5","45.5","77","30.24","331","0","0","0.01","0.00"
"22:19:58","52.1","45.1","77","30.24","331","0","0","0.01","0.00"
"22:24:58","51.7","44.9","77.5","30.24","331","0","0","0.01","0.00"
"22:29:57","51.5","44.9","78","30.25","331","0","0","0.01","0.00"
"22:34:59","51.2","44.9","78.9","30.25","331","0","0","0.01","0.00"
"22:39:58","51","44.9","79.6","30.25","331","0","0","0.01","0.00"
"22:44:58","51","45","80","30.25","331","0.8","2.4","0.01","0.00"
"22:49:57","51.1","45.5","81","30.25","331","0.1","2.3","0.01","0.00"
"22:54:56","51.1","45.1","80","30.25","331","0","0","0.01","0.00"
"22:59:56","51","45.3","80.8","30.25","331","0","0","0.01","0.00"
"23:04:59","50.7","45.1","81","30.25","331","0","0","0.01","0.00"
"23:09:57","50.4","45","81.8","30.25","286","0.6","2.4","0.01","0.00"
"23:14:58","50.1","44.8","82","30.26","182","0.2","2.3","0.01","0.00"
"23:19:57","49.9","44.7","82.2","30.26","182","0","1.2","0.01","0.00"
"23:24:56","50","44.8","82.3","30.26","182","0.8","2.4","0.01","0.00"
"23:29:58","50.1","44.8","82","30.26","182","0","1.2","0.01","0.00"
"23:34:57","50.1","44.9","82.5","30.26","182","0.1","2.4","0.01","0.00"
"23:39:57","49.9","45.2","83.8","30.26","182","1.3","2.4","0.01","0.00"
"23:44:56","50","45.3","83.7","30.26","182","0.4","2.4","0.01","0.00"
"23:49:59","50.1","45.5","83.9","30.26","182","0.1","1.2","0.01","0.00"
"23:54:59","50.1","45.7","84.6","30.26","182","0.9","2.4","0.01","0.00"
